Home   Weather   Kuwait City   Past weeks

Flag for Kuwait Past Weather in Kuwait City, Kuwait — Yesterday and Last 2 Weeks

Now
70 °F

Sunny.


Feels Like: 70 °F
Forecast: 52 / 69 °F
Wind: 12 mph from North

Location: Kuwait International Airport

Current Time: Feb 24, 2017 at 5:52:33 pm

Latest Report: Feb 24, 2017 at 5:00 pm


Visibility: 10 mi

Pressure: 30.15 "Hg

Humidity: 25%

Dew Point: 32 °F

Location of Kuwait CityLocation

Past Weather in Kuwait City — Graph

°F

Kuwait City Temperature Yesterday

Maximum temperature yesterday: 66 °F (at 1:00 pm)
Minimum temperature yesterday: 46 °F (at 5:00 am)
Average temperature yesterday: 55 °F

High & Low Weather Summary for the Past Weeks

 TemperatureHumidityPressure
High73 °F (Feb 10, 2:00 pm)100% (Feb 15, 8:00 pm)30.42 "Hg (Feb 15, 8:00 pm)
Low36 °F (Feb 19, 5:00 am)15% (Feb 20, 3:59 pm)29.77 "Hg (Feb 13, 1:00 am)
Average57 °F49%30.07 "Hg
* Reported Feb 9 4:00 pm — Feb 24 4:00 pm, Kuwait City, Weather by CustomWeather, © 2017

Note: Actual official high and low records may vary slightly from our data, if they occured in-between our weather recording intervals... More about our weather records

Advertising

Kuwait City Weather History for the Previous 24 Hours

Scroll right to see more
 ConditionsComfort  
Time TempWeatherWind HumidityBarometerVisibility
4:00 pm
Fri, Feb 24
72 °FSunny.14 mph22%30.15 "Hg10 mi
3:00 pm72 °FSunny.12 mph23%30.18 "Hg10 mi
2:00 pm70 °FSunny.14 mph25%30.18 "Hg10 mi
1:00 pm68 °FSunny.14 mph28%30.18 "Hg10 mi
12:00 pm66 °FSunny.14 mph30%30.21 "Hg10 mi
11:00 am63 °FSunny.14 mph39%30.21 "Hg10 mi
10:00 am61 °FSunny.14 mph45%30.24 "Hg10 mi
9:00 am57 °FSunny.12 mph51%30.24 "Hg10 mi
8:00 am54 °FSunny.8 mph63%30.21 "Hg10 mi
7:00 am48 °FSunny.3 mph82%30.21 "Hg10 mi
6:00 am48 °FClear.3 mph82%30.18 "Hg10 mi
5:00 am50 °FClear.3 mph76%30.15 "Hg10 mi
4:00 am50 °FClear.7 mph82%30.15 "Hg4 mi
3:00 am50 °FClear.6 mph88%30.15 "Hg10 mi
2:00 am52 °FClear.6 mph88%30.15 "Hg10 mi
1:00 am54 °FClear.8 mph82%30.15 "Hg10 mi
12:00 am54 °FClear.12 mph88%30.15 "Hg10 mi
11:00 pm
Thu, Feb 23
55 °FClear.5 mph82%30.12 "Hg10 mi
10:00 pm55 °FPassing clouds.10 mph88%30.12 "Hg5 mi
9:00 pm57 °FClear.14 mph77%30.12 "Hg10 mi
8:00 pm55 °FPassing clouds.14 mph82%30.12 "Hg4 mi
7:00 pm57 °FPassing clouds.17 mph82%30.09 "Hg4 mi
6:00 pm59 °FFog.16 mph77%30.07 "Hg3 mi
5:00 pm61 °FPartly sunny.13 mph63%30.04 "HgN/A
Weather by CustomWeather, © 2017

See weather overviewHow to use our weather pages